SCP
0 0 0 0 0 0 0 0 0 0 0 0 0 0 0 0 0 0 0 0 0 0 0 0 0 0 0 0 0 0 0 0 0 -0 -0 -0 0 0
0 0 0 0 0 0 0 0 0 0 0 0 0 0 0 0 0 0 0 0 0 0 0 0 0 0 0 0 -0 0 0 -0 0 0 0 0 0 0
0 0 0 0 0 0 0 0 0 0 0 0 0 0 0 0 0 0 0 0 0 0 0 0 0 0 0 0 -0 0 0 -0 0 0 0 0 0 0
0 0 0 0 0 0 0 0 0 0 0 0 0 0 0 0 0 0 0 0 0 0 0 0 0 0 0 0 0 0 0 0 0 0 0 0 0 0
0 0 0 0 0 0 0 0 0 -0 0 0 0 0 0 0 0 0 0 0 0 0 0 0 0 0 0 0 0 0 0 0 0 0 0 0 -0 0
0 0 0 0 0 0 0 0 0 0 0 0 0 0 0 0 0 0 0 0 0 0 0 0 0 0 0 0 0 0 0 0 0 0 0 -0 -0 0
0 0 0 0 0 0 0 0 0 0 0 0 0 0 0 0 0 0 0 0 0 0 0 0 0 0 0 0 0 0 0 0 0 0 0 -0 0 0
0 0 0 0 0 -0 -0 0 -0 0 0 0 0 0 0 0 0 0 0 0 0 0 0 0 0 0 0 0 0 0 0 0 0 0 0 0 0 0
0 0 0 0 0 0 0 0 -0 0 -0 0 0 0 0 0 0 0 0 0 0 0 0 0 0 0 0 0 0 0 0 0 0 0 0 0 0 0
0 0 0 0 0 0 0 0 0 0 0 0 0 0 0 0 0 0 0 0 0 0 0 0 0 0 0 0 0 0 -0 0 -0 -0 0 0 0 0
0 0 0 0 0 -0 0 0 0 0 -0 0 0 0 0 0 0 0 0 0 0 0 0 0 0 0 0 0 0 -0 0 -0 -0 0 0 0 0 -0
0 0 0 0 0 -0 0 0 0 0 0 0 0 0 0 0 0 0 0 0 0 0 0 0 0 0 0 0 0 -0 -0 -0 0 0 0 0 -0 0
0 0 0 0 0 -0 0 0 0 0 0 0 0 0 0 0 0 0 0 0 0 0 0 0 0 0 0 0 0 -0 -0 -0 0 0 0 -0 -0 -0
0 0 0 0 0 -0 0 -0 -0 0 0 0 0 0 0 0 0 0 0 0 0 0 0 0 0 0 0 0 0 0 0 0 0 0 0 0 -0 -0
0 0 0 0 0 -0 -0 -0 0 0 0 0 0 0 0 0 0 0 0 0 0 0 0 0 0 0 0 0 0 0 0 0 0 0 0 0 0 0
0 0 0 0 0 0 -0 0 0 0 0 0 0 0 0 0 0 0 0 0 0 0 0 0 0 0 0 0 0 0 0 0 0 0 0 0 0 0
0 0 0 0 0 0 0 0 0 0 0 0 0 0 0 0 0 0 0 0 0 0 0 0 0 0 0 0 0 0 0 0 0 0 0 0 -0 0
0 0 0 0 0 0 0 0 0 0 0 0 0 0 0 0 0 0 0 0 0 0 0 0 0 0 0 0 0 0 0 0 0 0 0 0 0 0
0 0 0 0 0 0 0 0 0 0 0 0 0 0 0 0 0 0 0 0 0 0 0 0 0 0 0 0 0 0 0 0 0 0 0 0 0 0
0 0 0 0 0 0 0 0 0 0 0 0 0 0 0 0 0 0 0 0 0 0 0 0 0 0 0 0 0 0 0 0 0 0 0 0 0 0
0 -0 -0 -0 -0 -0 0 0 0 0 0 0 0 0 0 0 0 0 0 0 0 0 0 0 0 0 0 0 0 0 0 0 0 0 0 0 0 0
-0 0 -0 0 -0 -0 0 0 0 0 0 0 0 0 0 0 0 0 0 0 0 0 0 0 0 0 0 0 0 0 0 0 0 0 0 0 0 0
0 -0 -0 0 -0 0 0 0 0 0 0 0 0 0 0 0 0 0 0 0 0 0 0 0 0 0 0 0 0 0 0 0 0 0 0 0 0 0
Wind_Speed_500mb
32 31 29 29 28 28 25 23 22 18 16 15 13 20 24 26 26 22 24 25 31 34 39 40 41 44 37 34 39 44 36 30 28 28 25 26 27 27
29 27 26 24 25 25 24 21 21 20 19 15 17 23 29 29 29 29 24 25 29 34 36 40 43 41 35 40 43 38 35 32 31 29 27 26 26 25
25 23 21 20 23 24 25 24 21 16 22 18 19 23 26 31 36 31 28 25 29 32 38 40 39 37 40 39 38 35 33 35 32 30 28 27 26 26
19 16 19 20 21 23 24 29 27 16 16 17 23 28 28 33 33 35 34 28 27 32 36 38 40 36 36 37 40 38 33 31 29 29 28 26 24 24
9 13 17 21 20 19 20 24 28 23 17 18 24 32 33 35 35 41 30 30 30 34 34 38 38 32 35 40 39 36 31 30 29 27 29 26 23 22
17 16 18 17 19 20 21 24 28 26 22 21 25 35 39 39 38 37 37 33 37 42 41 39 37 39 38 39 37 35 34 32 32 31 28 26 26 24
22 20 16 16 16 16 18 30 26 28 25 28 33 39 45 45 45 41 41 39 40 45 45 37 45 46 40 36 35 34 35 34 34 28 26 28 26 20
20 17 15 16 20 23 22 26 25 25 29 32 39 44 49 49 45 42 42 43 40 41 45 47 42 42 39 37 35 35 34 29 31 29 30 28 24 23
19 15 13 12 20 27 26 25 27 26 18 25 34 39 52 53 50 49 45 50 50 45 48 53 45 44 37 36 36 35 34 28 32 31 30 28 27 26
19 18 11 13 19 25 26 25 26 28 25 22 16 22 43 47 39 45 44 47 47 50 46 52 51 49 33 34 36 40 36 32 33 33 31 31 32 28
22 19 15 15 20 24 22 24 28 25 23 20 16 14 32 46 48 46 45 47 56 58 53 55 46 50 37 34 37 42 37 36 35 34 34 33 32 32
27 19 20 16 17 20 20 20 27 25 22 24 29 32 41 40 38 37 46 50 59 56 58 53 57 50 37 44 42 40 39 37 37 36 35 34 35 37
25 23 23 22 20 22 17 19 23 25 25 22 30 38 43 41 40 38 47 44 52 60 62 58 59 56 37 31 43 40 35 35 36 35 36 36 36 38
23 19 21 22 25 21 22 24 21 23 27 29 30 37 41 45 45 41 33 43 39 51 38 57 55 53 48 23 25 36 32 30 34 34 33 33 36 37
21 15 17 21 23 26 25 24 23 24 28 27 31 35 36 35 39 38 41 45 36 37 45 33 54 39 45 27 21 18 25 29 29 27 28 32 32 33
24 18 17 18 19 24 29 29 23 17 21 22 30 25 29 37 38 36 37 42 38 36 33 25 44 30 42 34 26 23 21 17 19 18 21 23 26 28
22 21 22 22 22 28 31 30 25 20 20 18 25 32 37 37 33 36 40 39 38 35 33 33 36 38 38 41 35 29 28 31 26 25 28 31 33 32
19 21 23 25 30 33 43 37 31 24 21 21 29 38 40 42 39 41 41 36 39 39 35 32 41 39 37 41 43 42 39 36 25 27 33 41 44 35
15 18 21 23 27 34 43 44 42 29 21 22 24 37 42 44 42 41 36 33 31 28 30 36 43 35 32 38 31 32 37 36 36 36 32 37 46 49
15 13 11 14 23 31 37 39 40 30 24 28 27 28 40 38 42 44 43 39 30 22 20 34 40 35 36 34 36 24 28 36 37 39 42 46 49 50
14 14 14 14 20 25 35 33 32 24 21 30 35 30 34 36 37 34 35 36 32 25 24 28 22 14 28 32 38 32 22 28 32 36 43 52 59 62
14 9 14 12 19 36 38 30 26 22 19 22 35 30 30 32 33 32 32 39 39 31 25 20 21 25 32 40 46 44 42 37 38 43 48 54 61 74
11 11 13 15 17 22 28 33 28 24 20 23 29 30 31 32 27 26 28 32 33 31 29 32 31 35 42 49 50 53 57 60 58 53 50 47 55 66
Wind_Direction_500mb
240 242 240 238 239 244 253 265 238 232 245 236 230 215 202 196 190 186 188 204 187 192 197 198 196 182 188 175 173 173 178 187 186 177 180 178 180 180
239 232 238 238 240 244 245 243 231 234 235 234 218 212 203 201 191 183 183 183 182 185 188 187 186 189 180 173 175 177 182 185 181 179 178 181 182 180
225 229 230 233 244 241 239 228 222 227 226 210 202 202 201 195 184 185 185 180 183 183 184 190 186 186 183 172 177 179 183 182 179 180 181 182 182 181
204 227 234 231 245 238 235 222 211 215 201 203 192 189 192 189 200 196 187 180 184 183 181 181 187 191 179 176 184 183 184 179 178 187 184 188 188 185
216 249 239 240 240 237 224 204 203 204 201 207 195 185 183 185 189 194 191 187 180 179 173 180 184 190 181 176 179 186 186 182 183 195 195 195 195 195
231 247 253 250 239 225 213 204 200 199 205 205 196 183 178 181 188 180 180 183 176 174 175 175 183 179 175 179 189 190 190 188 193 196 198 197 201 205
227 254 244 243 222 212 210 198 201 215 217 206 192 185 183 184 189 182 183 176 178 174 175 176 182 176 176 185 194 197 197 200 199 200 202 198 207 217
247 239 241 248 203 193 184 192 208 212 208 205 199 194 188 188 184 187 188 176 163 178 175 176 180 180 184 195 198 198 206 213 210 204 206 208 214 238
234 224 244 209 192 193 198 203 215 213 221 218 207 214 197 194 194 187 196 187 180 170 179 178 183 189 191 200 200 205 208 220 213 212 214 218 226 249
206 201 193 178 173 181 196 201 202 192 184 197 229 226 199 188 198 193 195 191 181 174 180 183 192 192 196 208 204 213 216 222 216 218 222 228 239 256
192 198 191 186 185 184 196 205 198 195 193 200 192 182 184 193 195 193 196 194 182 181 189 190 187 195 201 213 209 211 222 221 219 222 229 239 251 261
184 201 198 195 189 182 186 201 198 200 199 187 183 174 181 186 191 205 205 199 191 186 196 198 193 196 207 217 214 220 223 221 221 231 238 247 257 266
194 206 209 201 206 193 184 206 208 198 187 186 172 174 178 185 193 203 211 212 205 197 198 202 204 204 209 220 223 222 222 223 233 241 244 249 257 267
198 208 207 211 207 208 203 190 194 200 197 190 190 190 188 188 194 194 199 202 218 219 216 211 214 215 208 226 221 220 226 231 238 240 245 252 257 266
203 204 202 207 211 208 202 198 197 200 196 199 194 193 195 194 192 196 201 205 208 216 217 235 216 223 216 222 222 213 225 236 240 246 251 256 265 270
203 216 205 207 200 199 198 193 195 209 207 206 194 193 182 190 192 193 199 186 196 208 202 190 211 218 217 218 222 220 220 220 230 240 256 253 259 271
216 220 207 204 200 191 195 192 194 201 204 204 188 177 181 185 179 175 180 193 199 203 210 213 208 214 214 222 235 237 237 241 245 255 266 273 273 279
220 211 211 210 206 200 197 193 195 191 193 199 188 182 182 182 183 182 187 196 202 207 207 213 202 211 222 230 242 250 253 252 255 267 281 289 290 285
226 210 212 213 205 198 197 198 195 191 194 198 189 187 184 189 191 190 193 189 191 200 215 214 204 205 222 241 247 256 256 257 266 273 281 287 295 300
185 183 189 204 190 191 194 199 186 188 191 192 194 188 185 187 193 199 203 196 194 195 194 200 211 228 244 262 276 267 263 266 260 266 283 294 298 302
163 169 177 186 188 187 179 190 181 179 197 193 194 190 191 194 195 199 206 201 195 203 203 209 215 253 270 276 274 270 265 269 277 284 294 297 300 301
135 133 157 161 165 174 173 179 182 187 195 201 196 197 201 201 204 215 215 209 211 213 228 230 238 255 268 271 273 282 291 284 282 284 286 289 293 294
164 122 140 163 156 180 191 206 208 201 199 196 197 201 202 204 206 205 207 218 222 235 235 237 247 260 268 271 274 282 288 290 292 294 292 293 294 295
Wind_Speed_850mb
32 31 29 29 28 28 25 23 22 18 16 15 13 20 24 26 26 22 24 25 31 34 39 40 41 44 37 34 39 44 36 30 28 28 25 26 27 27
29 27 26 24 25 25 24 21 21 20 19 15 17 23 29 29 29 29 24 25 29 34 36 40 43 41 35 40 43 38 35 32 31 29 27 26 26 25
25 23 21 20 23 24 25 24 21 16 22 18 19 23 26 31 36 31 28 25 29 32 38 40 39 37 40 39 38 35 33 35 32 30 28 27 26 26
19 16 19 20 21 23 24 29 27 16 16 17 23 28 28 33 33 35 34 28 27 32 36 38 40 36 36 37 40 38 33 31 29 29 28 26 24 24
9 13 17 21 20 19 20 24 28 23 17 18 24 32 33 35 35 41 30 30 30 34 34 38 38 32 35 40 39 36 31 30 29 27 29 26 23 22
17 16 18 17 19 20 21 24 28 26 22 21 25 35 39 39 38 37 37 33 37 42 41 39 37 39 38 39 37 35 34 32 32 31 28 26 26 24
22 20 16 16 16 16 18 30 26 28 25 28 33 39 45 45 45 41 41 39 40 45 45 37 45 46 40 36 35 34 35 34 34 28 26 28 26 20
20 17 15 16 20 23 22 26 25 25 29 32 39 44 49 49 45 42 42 43 40 41 45 47 42 42 39 37 35 35 34 29 31 29 30 28 24 23
19 15 13 12 20 27 26 25 27 26 18 25 34 39 52 53 50 49 45 50 50 45 48 53 45 44 37 36 36 35 34 28 32 31 30 28 27 26
19 18 11 13 19 25 26 25 26 28 25 22 16 22 43 47 39 45 44 47 47 50 46 52 51 49 33 34 36 40 36 32 33 33 31 31 32 28
22 19 15 15 20 24 22 24 28 25 23 20 16 14 32 46 48 46 45 47 56 58 53 55 46 50 37 34 37 42 37 36 35 34 34 33 32 32
27 19 20 16 17 20 20 20 27 25 22 24 29 32 41 40 38 37 46 50 59 56 58 53 57 50 37 44 42 40 39 37 37 36 35 34 35 37
25 23 23 22 20 22 17 19 23 25 25 22 30 38 43 41 40 38 47 44 52 60 62 58 59 56 37 31 43 40 35 35 36 35 36 36 36 38
23 19 21 22 25 21 22 24 21 23 27 29 30 37 41 45 45 41 33 43 39 51 38 57 55 53 48 23 25 36 32 30 34 34 33 33 36 37
21 15 17 21 23 26 25 24 23 24 28 27 31 35 36 35 39 38 41 45 36 37 45 33 54 39 45 27 21 18 25 29 29 27 28 32 32 33
24 18 17 18 19 24 29 29 23 17 21 22 30 25 29 37 38 36 37 42 38 36 33 25 44 30 42 34 26 23 21 17 19 18 21 23 26 28
22 21 22 22 22 28 31 30 25 20 20 18 25 32 37 37 33 36 40 39 38 35 33 33 36 38 38 41 35 29 28 31 26 25 28 31 33 32
19 21 23 25 30 33 43 37 31 24 21 21 29 38 40 42 39 41 41 36 39 39 35 32 41 39 37 41 43 42 39 36 25 27 33 41 44 35
15 18 21 23 27 34 43 44 42 29 21 22 24 37 42 44 42 41 36 33 31 28 30 36 43 35 32 38 31 32 37 36 36 36 32 37 46 49
15 13 11 14 23 31 37 39 40 30 24 28 27 28 40 38 42 44 43 39 30 22 20 34 40 35 36 34 36 24 28 36 37 39 42 46 49 50
14 14 14 14 20 25 35 33 32 24 21 30 35 30 34 36 37 34 35 36 32 25 24 28 22 14 28 32 38 32 22 28 32 36 43 52 59 62
14 9 14 12 19 36 38 30 26 22 19 22 35 30 30 32 33 32 32 39 39 31 25 20 21 25 32 40 46 44 42 37 38 43 48 54 61 74
11 11 13 15 17 22 28 33 28 24 20 23 29 30 31 32 27 26 28 32 33 31 29 32 31 35 42 49 50 53 57 60 58 53 50 47 55 66
Wind_Direction_850mb
240 242 240 238 239 244 253 265 238 232 245 236 230 215 202 196 190 186 188 204 187 192 197 198 196 182 188 175 173 173 178 187 186 177 180 178 180 180
239 232 238 238 240 244 245 243 231 234 235 234 218 212 203 201 191 183 183 183 182 185 188 187 186 189 180 173 175 177 182 185 181 179 178 181 182 180
225 229 230 233 244 241 239 228 222 227 226 210 202 202 201 195 184 185 185 180 183 183 184 190 186 186 183 172 177 179 183 182 179 180 181 182 182 181
204 227 234 231 245 238 235 222 211 215 201 203 192 189 192 189 200 196 187 180 184 183 181 181 187 191 179 176 184 183 184 179 178 187 184 188 188 185
216 249 239 240 240 237 224 204 203 204 201 207 195 185 183 185 189 194 191 187 180 179 173 180 184 190 181 176 179 186 186 182 183 195 195 195 195 195
231 247 253 250 239 225 213 204 200 199 205 205 196 183 178 181 188 180 180 183 176 174 175 175 183 179 175 179 189 190 190 188 193 196 198 197 201 205
227 254 244 243 222 212 210 198 201 215 217 206 192 185 183 184 189 182 183 176 178 174 175 176 182 176 176 185 194 197 197 200 199 200 202 198 207 217
247 239 241 248 203 193 184 192 208 212 208 205 199 194 188 188 184 187 188 176 163 178 175 176 180 180 184 195 198 198 206 213 210 204 206 208 214 238
234 224 244 209 192 193 198 203 215 213 221 218 207 214 197 194 194 187 196 187 180 170 179 178 183 189 191 200 200 205 208 220 213 212 214 218 226 249
206 201 193 178 173 181 196 201 202 192 184 197 229 226 199 188 198 193 195 191 181 174 180 183 192 192 196 208 204 213 216 222 216 218 222 228 239 256
192 198 191 186 185 184 196 205 198 195 193 200 192 182 184 193 195 193 196 194 182 181 189 190 187 195 201 213 209 211 222 221 219 222 229 239 251 261
184 201 198 195 189 182 186 201 198 200 199 187 183 174 181 186 191 205 205 199 191 186 196 198 193 196 207 217 214 220 223 221 221 231 238 247 257 266
194 206 209 201 206 193 184 206 208 198 187 186 172 174 178 185 193 203 211 212 205 197 198 202 204 204 209 220 223 222 222 223 233 241 244 249 257 267
198 208 207 211 207 208 203 190 194 200 197 190 190 190 188 188 194 194 199 202 218 219 216 211 214 215 208 226 221 220 226 231 238 240 245 252 257 266
203 204 202 207 211 208 202 198 197 200 196 199 194 193 195 194 192 196 201 205 208 216 217 235 216 223 216 222 222 213 225 236 240 246 251 256 265 270
203 216 205 207 200 199 198 193 195 209 207 206 194 193 182 190 192 193 199 186 196 208 202 190 211 218 217 218 222 220 220 220 230 240 256 253 259 271
216 220 207 204 200 191 195 192 194 201 204 204 188 177 181 185 179 175 180 193 199 203 210 213 208 214 214 222 235 237 237 241 245 255 266 273 273 279
220 211 211 210 206 200 197 193 195 191 193 199 188 182 182 182 183 182 187 196 202 207 207 213 202 211 222 230 242 250 253 252 255 267 281 289 290 285
226 210 212 213 205 198 197 198 195 191 194 198 189 187 184 189 191 190 193 189 191 200 215 214 204 205 222 241 247 256 256 257 266 273 281 287 295 300
185 183 189 204 190 191 194 199 186 188 191 192 194 188 185 187 193 199 203 196 194 195 194 200 211 228 244 262 276 267 263 266 260 266 283 294 298 302
163 169 177 186 188 187 179 190 181 179 197 193 194 190 191 194 195 199 206 201 195 203 203 209 215 253 270 276 274 270 265 269 277 284 294 297 300 301
135 133 157 161 165 174 173 179 182 187 195 201 196 197 201 201 204 215 215 209 211 213 228 230 238 255 268 271 273 282 291 284 282 284 286 289 293 294
164 122 140 163 156 180 191 206 208 201 199 196 197 201 202 204 206 205 207 218 222 235 235 237 247 260 268 271 274 282 288 290 292 294 292 293 294 295